| time (UTC) | temp C | wind direction | speed KPH | gust KPH | rain 1hr cm | rain 24hr cm | rain mn cm | humidity % | barometer mb |
| 20260505092016 | 16 | 270 | 1.6 | 8.0 | 0.00 | 0.00 | 0.00 | 74 | 1014.5 |
| 20260505091016 | 16 | 293 | 3.2 | 8.0 | 0.00 | 0.00 | 0.00 | 73 | 1014.3 |
| 20260505090016 | 16 | 338 | 1.6 | 6.4 | 0.00 | 0.00 | 0.00 | 73 | 1014.3 |
| 20260505085036 | 16 | 270 | 3.2 | 11.3 | 0.00 | 0.00 | 0.00 | 72 | 1014.3 |
| 20260505084016 | 16 | 270 | 1.6 | 9.7 | 0.00 | 0.00 | 0.00 | 72 | 1014.4 |
| 20260505083015 | 16 | 270 | 3.2 | 9.7 | 0.00 | 0.00 | 0.00 | 71 | 1014.3 |
| 20260505082036 | 17 | 270 | 1.6 | 6.4 | 0.00 | 0.00 | 0.00 | 71 | 1014.2 |
| 20260505081036 | 17 | 270 | 3.2 | 12.9 | 0.00 | 0.00 | 0.00 | 70 | 1014.2 |
| 20260505080036 | 17 | 270 | 1.6 | 9.7 | 0.00 | 0.00 | 0.00 | 70 | 1014.2 |
| 20260505075016 | 17 | 293 | 1.6 | 6.4 | 0.00 | 0.00 | 0.00 | 69 | 1014.2 |
| 20260505074056 | 17 | 293 | 1.6 | 4.8 | 0.00 | 0.00 | 0.00 | 68 | 1014.2 |
| 20260505073016 | 17 | 0.0 | 4.8 | 0.00 | 0.00 | 0.00 | 67 | 1014.1 | |
| 20260505072016 | 17 | 270 | 1.6 | 4.8 | 0.00 | 0.00 | 0.00 | 66 | 1014.0 |
| 20260505071016 | 17 | 248 | 1.6 | 8.0 | 0.00 | 0.00 | 0.00 | 66 | 1013.8 |
| 20260505070016 | 17 | 0.0 | 4.8 | 0.00 | 0.00 | 0.00 | 65 | 1013.9 | |
| 20260505065015 | 17 | 270 | 1.6 | 8.0 | 0.00 | 0.00 | 0.00 | 64 | 1013.7 |
| 20260505064016 | 17 | 270 | 1.6 | 8.0 | 0.00 | 0.00 | 0.00 | 63 | 1013.8 |
| 20260505063016 | 17 | 293 | 3.2 | 11.3 | 0.00 | 0.00 | 0.00 | 63 | 1013.7 |
| 20260505062016 | 17 | 270 | 1.6 | 8.0 | 0.00 | 0.00 | 0.00 | 62 | 1013.6 |
| 20260505061015 | 18 | 293 | 1.6 | 8.0 | 0.00 | 0.00 | 0.00 | 61 | 1013.7 |
| 20260505060015 | 18 | 293 | 1.6 | 3.2 | 0.00 | 0.00 | 0.00 | 60 | 1013.7 |
| 20260505055016 | 18 | 68 | 1.6 | 6.4 | 0.00 | 0.00 | 0.00 | 59 | 1013.8 |
| 20260505054016 | 18 | 0.0 | 4.8 | 0.00 | 0.00 | 0.00 | 58 | 1013.8 | |
| 20260505053016 | 18 | 0.0 | 3.2 | 0.00 | 0.00 | 0.00 | 57 | 1013.7 | |
| 20260505052035 | 18 | 270 | 1.6 | 6.4 | 0.00 | 0.00 | 0.00 | 57 | 1013.8 |
| 20260505051015 | 19 | 270 | 1.6 | 8.0 | 0.00 | 0.00 | 0.00 | 56 | 1013.7 |
| 20260505041016 | 18 | 0.0 | 0.0 | 0.00 | 0.00 | 0.00 | 57 | 1013.3 | |
| 20260505040015 | 18 | 0.0 | 4.8 | 0.00 | 0.00 | 0.00 | 57 | 1013.2 | |
| 20260505035015 | 18 | 0.0 | 1.6 | 0.00 | 0.00 | 0.00 | 58 | 1013.2 | |
| 20260505034015 | 17 | 0.0 | 0.0 | 0.00 | 0.00 | 0.00 | 60 | 1013.2 | |
| 20260505033015 | 17 | 0.0 | 0.0 | 0.00 | 0.00 | 0.00 | 61 | 1013.3 | |
| 20260505032035 | 17 | 0.0 | 0.0 | 0.00 | 0.00 | 0.00 | 62 | 1013.3 | |
| 20260505031015 | 18 | 0.0 | 0.0 | 0.00 | 0.00 | 0.00 | 60 | 1013.2 | |
| 20260505030015 | 18 | 0.0 | 0.0 | 0.00 | 0.00 | 0.00 | 60 | 1013.4 | |
| 20260505025035 | 19 | 0.0 | 0.0 | 0.00 | 0.00 | 0.00 | 59 | 1013.4 | |
| 20260505024015 | 20 | 0.0 | 0.0 | 0.00 | 0.00 | 0.00 | 56 | 1013.4 | |
| 20260505023015 | 20 | 0.0 | 1.6 | 0.00 | 0.00 | 0.00 | 54 | 1013.3 | |
| 20260505022015 | 20 | 0.0 | 3.2 | 0.00 | 0.00 | 0.00 | 54 | 1013.2 | |
| 20260505021015 | 20 | 0.0 | 1.6 | 0.00 | 0.00 | 0.00 | 53 | 1013.2 | |
| 20260505020015 | 20 | 0.0 | 1.6 | 0.00 | 0.00 | 0.00 | 53 | 1013.3 | |
| 20260505015015 | 20 | 0.0 | 0.0 | 0.00 | 0.00 | 0.00 | 53 | 1013.2 | |
| 20260505014015 | 20 | 0.0 | 4.8 | 0.00 | 0.00 | 0.00 | 51 | 1013.1 | |
| 20260505013015 | 21 | 0.0 | 4.8 | 0.00 | 0.00 | 0.00 | 51 | 1013.0 | |
| 20260505012017 | 21 | 0.0 | 0.0 | 0.00 | 0.00 | 0.00 | 50 | 1012.8 | |
| 20260505011017 | 21 | 0.0 | 1.6 | 0.00 | 0.00 | 0.00 | 49 | 1012.7 | |
| 20260505010017 | 21 | 0.0 | 4.8 | 0.00 | 0.00 | 0.00 | 48 | 1012.6 | |
| 20260505005017 | 22 | 0.0 | 0.0 | 0.00 | 0.00 | 0.00 | 47 | 1012.5 | |
| 20260505004017 | 22 | 90 | 1.6 | 4.8 | 0.00 | 0.00 | 0.00 | 47 | 1012.4 |
| 20260505003017 | 22 | 270 | 1.6 | 9.7 | 0.00 | 0.00 | 0.00 | 46 | 1012.5 |
| 20260505002017 | 22 | 0.0 | 0.0 | 0.00 | 0.00 | 0.00 | 47 | 1012.5 | |
| 20260505001017 | 22 | 0.0 | 4.8 | 0.00 | 0.00 | 0.00 | 46 | 1012.3 | |
| 20260505000037 | 22 | 293 | 1.6 | 6.4 | 0.00 | 0.00 | 0.00 | 45 | 1012.6 |
| 20260504235057 | 22 | 0.0 | 3.2 | 0.00 | 0.00 | 0.00 | 44 | 1012.6 | |
| 20260504234017 | 23 | 0.0 | 3.2 | 0.00 | 0.00 | 0.00 | 43 | 1012.5 | |
| 20260504233015 | 23 | 270 | 1.6 | 4.8 | 0.00 | 0.00 | 0.00 | 42 | 1012.5 |
| 20260504232017 | 23 | 293 | 1.6 | 8.0 | 0.00 | 0.00 | 0.00 | 41 | 1012.4 |
| 20260504231017 | 23 | 270 | 1.6 | 6.4 | 0.00 | 0.00 | 0.00 | 40 | 1012.2 |
| 20260504230017 | 24 | 270 | 1.6 | 8.0 | 0.00 | 0.00 | 0.00 | 39 | 1012.1 |
| 20260504225017 | 25 | 90 | 1.6 | 8.0 | 0.00 | 0.00 | 0.00 | 39 | 1012.2 |
| 20260504224037 | 25 | 293 | 3.2 | 11.3 | 0.00 | 0.00 | 0.00 | 38 | 1012.5 |
| 20260504223016 | 25 | 315 | 3.2 | 11.3 | 0.00 | 0.00 | 0.00 | 38 | 1012.5 |
| 20260504222017 | 25 | 270 | 3.2 | 16.1 | 0.00 | 0.00 | 0.00 | 37 | 1012.4 |
| 20260504221017 | 26 | 293 | 3.2 | 8.0 | 0.00 | 0.00 | 0.00 | 37 | 1012.3 |
| 20260504220017 | 26 | 293 | 4.8 | 16.1 | 0.00 | 0.00 | 0.00 | 36 | 1012.3 |
| 20260504215016 | 26 | 293 | 3.2 | 12.9 | 0.00 | 0.00 | 0.00 | 36 | 1012.3 |
| 20260504214017 | 26 | 270 | 3.2 | 12.9 | 0.00 | 0.00 | 0.00 | 36 | 1012.2 |
| 20260504213018 | 26 | 293 | 1.6 | 6.4 | 0.00 | 0.00 | 0.00 | 36 | 1012.2 |
| 20260504212016 | 26 | 45 | 3.2 | 8.0 | 0.00 | 0.00 | 0.00 | 36 | 1012.3 |
| 20260504211036 | 26 | 270 | 4.8 | 12.9 | 0.00 | 0.00 | 0.00 | 35 | 1012.3 |
| 20260504210017 | 26 | 315 | 3.2 | 12.9 | 0.00 | 0.00 | 0.00 | 36 | 1012.2 |
| 20260504205017 | 26 | 270 | 3.2 | 6.4 | 0.00 | 0.00 | 0.00 | 36 | 1012.2 |
| 20260504204037 | 26 | 270 | 4.8 | 17.7 | 0.00 | 0.00 | 0.00 | 36 | 1012.3 |
| 20260504203017 | 26 | 338 | 1.6 | 6.4 | 0.00 | 0.00 | 0.00 | 35 | 1012.4 |
| 20260504202017 | 26 | 293 | 3.2 | 8.0 | 0.00 | 0.00 | 0.00 | 36 | 1012.5 |
| 20260504201017 | 26 | 293 | 4.8 | 12.9 | 0.00 | 0.00 | 0.00 | 37 | 1012.7 |
| 20260504200037 | 25 | 293 | 4.8 | 17.7 | 0.00 | 0.00 | 0.00 | 37 | 1012.6 |
| 20260504195017 | 26 | 293 | 4.8 | 12.9 | 0.00 | 0.00 | 0.00 | 37 | 1012.7 |
| 20260504194017 | 26 | 270 | 3.2 | 8.0 | 0.00 | 0.00 | 0.00 | 37 | 1013.0 |
| 20260504193017 | 25 | 293 | 3.2 | 11.3 | 0.00 | 0.00 | 0.00 | 36 | 1013.2 |
| 20260504192017 | 25 | 293 | 3.2 | 9.7 | 0.00 | 0.00 | 0.00 | 37 | 1013.5 |
| 20260504191016 | 25 | 293 | 4.8 | 11.3 | 0.00 | 0.00 | 0.00 | 37 | 1013.6 |
| 20260504190017 | 25 | 90 | 3.2 | 11.3 | 0.00 | 0.00 | 0.00 | 36 | 1013.6 |
| 20260504185017 | 25 | 315 | 3.2 | 17.7 | 0.00 | 0.00 | 0.00 | 37 | 1013.9 |
| 20260504184016 | 24 | 293 | 4.8 | 14.5 | 0.00 | 0.00 | 0.00 | 37 | 1014.0 |
| 20260504183017 | 23 | 293 | 3.2 | 9.7 | 0.00 | 0.00 | 0.00 | 35 | 1014.0 |
| 20260504182016 | 23 | 270 | 4.8 | 11.3 | 0.00 | 0.00 | 0.00 | 36 | 1014.1 |
| 20260504181017 | 24 | 293 | 3.2 | 9.7 | 0.00 | 0.00 | 0.00 | 37 | 1014.1 |
| 20260504180017 | 23 | 293 | 3.2 | 9.7 | 0.00 | 0.00 | 0.00 | 38 | 1014.2 |
| 20260504175017 | 23 | 293 | 4.8 | 12.9 | 0.00 | 0.00 | 0.00 | 36 | 1014.3 |
| 20260504174016 | 23 | 270 | 3.2 | 9.7 | 0.00 | 0.00 | 0.00 | 35 | 1014.4 |
| 20260504173016 | 24 | 270 | 3.2 | 8.0 | 0.00 | 0.00 | 0.00 | 34 | 1014.5 |
| 20260504172016 | 25 | 270 | 3.2 | 11.3 | 0.00 | 0.00 | 0.00 | 35 | 1014.5 |
| 20260504171016 | 24 | 90 | 3.2 | 9.7 | 0.00 | 0.00 | 0.00 | 36 | 1014.6 |
| 20260504151016 | 22 | 68 | 3.2 | 6.4 | 0.00 | 0.00 | 0.00 | 39 | 1016.0 |
| 20260504141016 | 20 | 270 | 1.6 | 4.8 | 0.00 | 0.00 | 0.00 | 48 | 1016.2 |